[[{"header":{"parameterUnit":"m.s-1","parameterCategory":1,"la1":30.2991,"la2":30.254,"lo1":-89.0895,"lo2":-89.0444,"dy":0.0017,"dx":0.0017,"nx":28,"ny":28,"refTime":"2023-09-01T21:00:00:Z","depth":0,"parameterNumber":2,"parameterNumberName":"U-component_of_WINDS"},"data":[0,0,0,0,0,0,0,0,0,0,0,0,0,0,0,0,0,0,0,0,0,0,0,0,0,0,0,0,0,0,0,0,0,0,0,0,0,0,0,0,0,0,0,0,0,0,0,0,0,0,0,0,0,0,0,0,0,0,1.434,1.4343,0,1.4658,1.4662,1.4665,1.4705,1.4701,1.4698,1.4695,1.5033,1.5045,1.5056,0,0,0,0,0,0,0,0,0,0,0,0,0,1.3777,1.3788,1.434,1.4344,1.4348,1.4657,1.4662,1.4666,1.4705,1.4701,1.4697,1.4694,1.5029,1.5043,1.5057,0,0,0,0,0,0,0,0,0,0,0,0,0,1.4051,1.3791,1.4339,1.4404,1.4413,1.4656,1.4662,1.4667,1.4706,1.4701,1.4696,1.4692,1.5024,1.5042,1.5059,1.5264,0,0,1.5114,1.5122,0,0,0,0,0,0,0,0,1.4036,1.4072,1.4391,1.44,1.441,1.4636,1.4587,1.4868,1.4707,1.4595,1.4695,1.469,1.4906,1.4933,1.5003,1.5279,1.5294,1.5116,1.5126,1.5134,1.5139,0,0,0,0,0,0,0,1.4017,1.4059,1.4466,1.4395,1.4407,1.4421,1.4455,1.4641,1.4773,1.4604,1.4608,1.4644,1.491,1.4986,1.5012,1.5299,1.5115,1.5131,1.5142,1.5149,1.5761,1.5766,0,0,0,0,0,0,1.3984,1.4043,1.4456,1.4475,1.4207,1.4435,1.4473,1.4569,1.4771,1.4797,1.4648,1.4645,1.4958,1.4991,1.5024,1.5278,1.5134,1.5151,1.5161,1.5755,1.5762,1.5768,0,0,0,0,0,0,1.3972,1.4021,1.4443,1.426,1.4315,1.445,1.4557,1.4578,1.4653,1.4804,1.4829,1.47,1.4955,1.4999,1.5203,1.529,1.5159,1.5175,1.5749,1.5758,1.5765,1.5786,0,0,0,0,0,0,1.3956,1.4016,1.4092,1.4261,1.4324,1.4614,1.4563,1.4587,1.4683,1.4682,1.486,1.4885,1.4955,1.5176,1.5221,1.5312,1.5189,1.5742,1.5753,1.5763,1.5778,1.5794,1.5807,0,0,0,0,0,1.3935,1.4088,1.4096,1.4145,1.4422,1.4619,1.4655,1.4729,1.4689,1.4769,1.4866,1.4879,1.5272,1.5197,1.5248,1.5345,1.5737,1.575,1.5762,1.5772,1.5791,1.5807,0,0,0,0,0,0,1.3929,1.4111,1.4122,1.4333,1.4459,1.4625,1.4728,1.4747,1.4891,1.4885,1.4974,1.5014,1.5216,1.5301,1.5214,1.5555,1.5501,1.5525,1.5491,1.5511,1.5525,1.5502,1.5204,0,0,0,0,0,1.3951,1.4092,1.4245,1.4416,1.4479,1.4592,1.4681,1.4726,1.4863,1.4918,1.503,1.5166,1.532,1.542,1.557,1.579,1.5831,1.5882,1.5897,1.5908,1.5928,1.6053,1.6078,1.5809,1.5809,1.5809,0,0,1.4001,1.4117,1.4202,1.4418,1.4522,1.4669,1.4637,1.4795,1.4906,1.4944,1.5143,1.523,1.5387,1.56,1.57,1.5678,1.6011,1.5924,1.5932,1.5946,1.6068,1.6093,1.6116,1.5818,1.5816,1.5815,0,0,1.4166,1.4267,1.4421,1.4525,1.4681,1.4755,1.4792,1.4955,1.5013,1.5213,1.5245,1.5381,1.5644,1.5755,1.5846,1.6053,1.6072,1.61,1.6177,1.6297,1.6319,1.6338,1.6414,1.644,1.6118,1.6118,1.6119,0,1.4209,1.4428,1.4499,1.4655,1.4751,1.4787,1.4947,1.5045,1.5244,1.5311,1.5282,1.5613,1.5722,1.5962,1.6012,1.6084,1.6132,1.6081,1.6309,1.6329,1.6348,1.6422,1.645,1.6121,1.6121,1.612,1.612,0,1.4474,1.4627,1.4733,1.492,1.5027,1.5185,1.5283,1.5384,1.542,1.5499,1.5704,1.5835,1.6013,1.6073,1.6112,1.6321,1.6302,1.629,1.6239,1.6375,1.6446,1.6475,1.6125,1.6124,1.6123,1.6122,0,0,1.4646,1.4868,1.4907,1.4992,1.5167,1.5288,1.5448,1.5618,1.5704,1.584,1.5979,1.62,1.619,1.6293,1.6345,1.645,1.6609,1.6426,1.6431,1.6457,1.6849,1.6859,1.689,1.6621,1.6626,1.6631,1.6837,0,1.4833,1.5114,1.5183,1.5426,1.5569,1.5605,1.5745,1.587,1.5947,1.6083,1.617,1.6326,1.63,1.6363,1.6468,1.6566,1.6689,1.6552,1.6755,1.6761,1.6716,1.6927,1.6937,1.7125,1.6865,1.687,1.6873,0,1.5089,1.5226,1.5482,1.5638,1.5701,1.5825,1.5987,1.6115,1.6258,1.6307,1.6421,1.6463,1.6634,1.6572,1.6812,1.6718,1.6805,1.6866,1.6875,1.6899,1.6826,1.6958,1.7187,1.7215,1.6917,1.6913,1.691,0,1.5191,1.544,1.5626,1.5698,1.5884,1.5971,1.6053,1.6191,1.6289,1.6432,1.6497,1.6659,1.6749,1.6876,1.6961,1.6907,1.7195,1.7139,1.7244,1.7242,1.7305,1.73,1.7552,1.7357,1.7356,1.7356,1.7355,0,1.5393,1.5549,1.5674,1.5788,1.5965,1.6043,1.6217,1.6301,1.6424,1.6558,1.66,1.6726,1.683,1.6971,1.7039,1.7229,1.7269,1.7316,1.7333,1.7314,1.7308,1.7373,1.7364,1.7363,1.7362,1.736,1.7359,0,1.5538,1.5627,1.5832,1.599,1.6034,1.6158,1.6296,1.641,1.6488,1.6658,1.6702,1.6826,1.6995,1.7091,1.7304,1.735,1.7562,1.7571,1.7512,1.752,1.762,1.761,1.7925,1.7972,1.7743,1.7745,1.7746,0,1.5662,1.5782,1.5953,1.6043,1.6126,1.6273,1.6372,1.6455,1.6558,1.6729,1.6824,1.6994,1.7134,1.7402,1.7514,1.7678,1.7693,1.7792,1.7719,1.7696,1.7698,1.769,1.7704,1.7806,1.7808,1.781,1.7811,0,1.5874,1.5912,1.6051,1.6207,1.6323,1.6451,1.6578,1.6652,1.6756,1.687,1.7041,1.7149,1.7365,1.7535,1.7707,1.7797,1.7824,1.7833,1.7866,1.7849,1.781,1.7835,1.7549,1.7826,1.7824,1.7823,1.7823,1.7822,1.6014,1.6122,1.6259,1.6414,1.6517,1.6635,1.675,1.6842,1.6984,1.7164,1.7205,1.7385,1.7528,1.7761,1.7855,1.8,1.7983,1.8031,1.8043,1.8054,1.8058,1.7785,1.8032,1.8031,1.8031,1.8031,1.8031,0,1.6229,1.6318,1.646,1.6634,1.6757,1.6766,1.6907,1.7011,1.7167,1.7296,1.7432,1.7629,1.7794,1.7917,1.8087,1.8179,1.8196,1.8221,1.8217,1.8237,1.8063,1.8018,1.8205,1.8205,1.8205,1.8205,1.8205,1.8205,1.6356,1.6541,1.6595,1.6833,1.6923,1.7097,1.7177,1.7287,1.739,1.7607,1.7742,1.782,1.7948,1.8127,1.8279,1.8312,1.8374,1.8398,1.8432,1.8268,1.8249,1.8231,1.819,1.841,1.841,1.8595,1.8597,1.8598]},{"header":{"parameterUnit":"m.s-1","parameterCategory":1,"la1":30.2991,"la2":30.254,"lo1":-89.0895,"lo2":-89.0444,"dy":0.0017,"dx":0.0017,"nx":28,"ny":28,"refTime":"2023-09-01T21:00:00:Z","depth":0,"parameterNumber":3,"parameterNumberName":"V-component_of_WINDS"},"data":[0,0,0,0,0,0,0,0,0,0,0,0,0,0,0,0,0,0,0,0,0,0,0,0,0,0,0,0,0,0,0,0,0,0,0,0,0,0,0,0,0,0,0,0,0,0,0,0,0,0,0,0,0,0,0,0,0,0,-1.13,-1.1298,0,-1.1108,-1.1105,-1.1103,-1.1091,-1.1093,-1.1096,-1.1098,-1.0874,-1.0867,-1.0859,0,0,0,0,0,0,0,0,0,0,0,0,0,-1.1634,-1.1628,-1.1301,-1.1298,-1.1296,-1.1108,-1.1105,-1.1103,-1.1091,-1.1093,-1.1096,-1.1099,-1.0877,-1.0868,-1.0858,0,0,0,0,0,0,0,0,0,0,0,0,0,-1.1469,-1.1626,-1.1301,-1.1268,-1.1263,-1.1109,-1.1105,-1.1102,-1.109,-1.1094,-1.1097,-1.11,-1.088,-1.0869,-1.0857,-1.0714,0,0,-1.082,-1.0814,0,0,0,0,0,0,0,0,-1.1478,-1.1457,-1.1275,-1.127,-1.1264,-1.1128,-1.1141,-1.0971,-1.1089,-1.1155,-1.1098,-1.1102,-1.0954,-1.0936,-1.0892,-1.0704,-1.0694,-1.0819,-1.0811,-1.0806,-1.0803,0,0,0,0,0,0,0,-1.149,-1.1465,-1.1223,-1.1272,-1.1266,-1.1254,-1.1235,-1.1109,-1.1037,-1.1149,-1.1148,-1.1127,-1.0952,-1.0903,-1.0886,-1.0691,-1.0819,-1.0808,-1.0801,-1.0796,-1.0373,-1.0369,0,0,0,0,0,0,-1.1511,-1.1475,-1.1229,-1.1218,-1.1383,-1.1246,-1.1224,-1.1167,-1.1039,-1.1023,-1.1124,-1.1127,-1.0922,-1.0901,-1.0878,-1.0702,-1.0806,-1.0795,-1.0788,-1.0377,-1.0372,-1.0367,0,0,0,0,0,0,-1.1518,-1.149,-1.1237,-1.1346,-1.1313,-1.1237,-1.1173,-1.1162,-1.1114,-1.102,-1.1004,-1.109,-1.0924,-1.0895,-1.0756,-1.0694,-1.0789,-1.0778,-1.0381,-1.0375,-1.037,-1.0349,0,0,0,0,0,0,-1.1528,-1.1492,-1.1443,-1.1345,-1.1308,-1.1126,-1.117,-1.1156,-1.1096,-1.1098,-1.0984,-1.0967,-1.0925,-1.0775,-1.0744,-1.0679,-1.0769,-1.0386,-1.0379,-1.0371,-1.0354,-1.0343,-1.0333,0,0,0,0,0,-1.154,-1.144,-1.1441,-1.1411,-1.1246,-1.1123,-1.11,-1.106,-1.1092,-1.1038,-1.0977,-1.0971,-1.0707,-1.076,-1.0726,-1.0656,-1.039,-1.0381,-1.0372,-1.0359,-1.0345,-1.0333,0,0,0,0,0,0,-1.1523,-1.1426,-1.1426,-1.1293,-1.1218,-1.1121,-1.1052,-1.1047,-1.0953,-1.0958,-1.0904,-1.0878,-1.074,-1.0684,-1.0746,-1.051,-1.055,-1.0534,-1.0553,-1.0538,-1.0527,-1.0542,-1.0759,0,0,0,0,0,-1.1506,-1.1422,-1.1338,-1.1228,-1.1191,-1.1129,-1.1073,-1.105,-1.0965,-1.093,-1.0859,-1.0771,-1.0667,-1.0599,-1.0499,-1.0347,-1.0318,-1.0281,-1.0271,-1.0262,-1.0247,-1.0159,-1.0141,-1.0338,-1.0338,-1.0338,0,0,-1.1465,-1.1402,-1.1351,-1.1224,-1.1162,-1.1069,-1.1101,-1.1001,-1.0929,-1.0912,-1.0779,-1.0724,-1.062,-1.0474,-1.0405,-1.0422,-1.0187,-1.0251,-1.0245,-1.0234,-1.0148,-1.013,-1.0113,-1.0332,-1.0333,-1.0334,0,0,-1.1344,-1.1291,-1.1193,-1.1132,-1.1042,-1.1001,-1.0978,-1.0882,-1.0848,-1.0715,-1.0701,-1.0609,-1.0433,-1.036,-1.03,-1.0152,-1.0141,-1.012,-1.0061,-0.9976,-0.9961,-0.9946,-0.9891,-0.9872,-1.0106,-1.0106,-1.0106,0,-1.1303,-1.1171,-1.1141,-1.1043,-1.0985,-1.0975,-1.0871,-1.081,-1.0688,-1.0644,-1.0668,-1.0447,-1.0376,-1.0212,-1.0177,-1.0129,-1.0095,-1.0132,-0.9967,-0.9952,-0.9939,-0.9884,-0.9864,-1.0104,-1.0104,-1.0105,-1.0105,0,-1.1123,-1.1031,-1.0961,-1.0854,-1.0787,-1.0686,-1.0634,-1.0569,-1.0551,-1.0505,-1.0367,-1.0283,-1.0165,-1.0124,-1.0102,-0.9955,-0.9968,-0.998,-1.0018,-0.9919,-0.9866,-0.9846,-1.0101,-1.0102,-1.0102,-1.0103,0,0,-1.0984,-1.0865,-1.0839,-1.0789,-1.0689,-1.0613,-1.0508,-1.0402,-1.0346,-1.0261,-1.0168,-1.002,-1.0031,-0.9962,-0.9932,-0.9858,-0.9742,-0.9877,-0.9874,-0.9853,-0.957,-0.9561,-0.9538,-0.9736,-0.9732,-0.9729,-0.9578,0,-1.0851,-1.0676,-1.0645,-1.0488,-1.0399,-1.0389,-1.0297,-1.0221,-1.0175,-1.0086,-1.0032,-0.9928,-0.9952,-0.991,-0.9837,-0.9773,-0.9684,-0.9783,-0.9641,-0.9637,-0.9667,-0.9511,-0.9501,-0.9363,-0.9558,-0.9554,-0.9552,0,-1.0671,-1.0592,-1.0429,-1.0341,-1.0302,-1.0222,-1.0121,-1.0039,-0.995,-0.9921,-0.9847,-0.9825,-0.9708,-0.9755,-0.9589,-0.9657,-0.9597,-0.9556,-0.955,-0.9532,-0.9587,-0.9486,-0.9318,-0.9296,-0.952,-0.9523,-0.9525,0,-1.0584,-1.0434,-1.0318,-1.0275,-1.017,-1.0114,-1.0065,-0.9981,-0.9919,-0.9827,-0.9785,-0.9678,-0.9618,-0.9532,-0.9479,-0.9519,-0.9316,-0.9359,-0.9282,-0.9283,-0.9237,-0.924,-0.9054,-0.9203,-0.9204,-0.9204,-0.9205,0,-1.0436,-1.0336,-1.0278,-1.0205,-1.009,-1.0053,-0.9937,-0.9888,-0.9814,-0.9725,-0.9706,-0.9622,-0.9559,-0.9463,-0.942,-0.9287,-0.926,-0.9228,-0.9217,-0.9228,-0.9232,-0.9186,-0.9193,-0.9198,-0.92,-0.9201,-0.9202,0,-1.0318,-1.0276,-1.0147,-1.0061,-1.0037,-0.9955,-0.9877,-0.9801,-0.9757,-0.9645,-0.9616,-0.9543,-0.9429,-0.937,-0.9225,-0.9195,-0.9046,-0.9041,-0.9079,-0.9074,-0.8999,-0.9006,-0.8774,-0.874,-0.8915,-0.8914,-0.8912,0,-1.0226,-1.015,-1.0057,-1.0002,-0.9955,-0.9864,-0.9803,-0.9761,-0.9696,-0.959,-0.9525,-0.9414,-0.9322,-0.914,-0.9067,-0.8956,-0.8946,-0.8873,-0.8928,-0.8942,-0.8941,-0.8946,-0.8936,-0.8862,-0.886,-0.8859,-0.8858,0,-1.0066,-1.005,-0.9967,-0.9875,-0.9805,-0.9728,-0.9652,-0.9605,-0.955,-0.9476,-0.9366,-0.9295,-0.9152,-0.9037,-0.8921,-0.8861,-0.8847,-0.8842,-0.8817,-0.8826,-0.8851,-0.8834,-0.9049,-0.8846,-0.8847,-0.8848,-0.8848,-0.8849,-0.9955,-0.9887,-0.9813,-0.9719,-0.966,-0.959,-0.9516,-0.9465,-0.9375,-0.9261,-0.9239,-0.912,-0.9029,-0.8873,-0.881,-0.8711,-0.8725,-0.869,-0.8681,-0.8672,-0.8668,-0.887,-0.8689,-0.8689,-0.869,-0.869,-0.869,0,-0.9792,-0.9745,-0.966,-0.9559,-0.9484,-0.9488,-0.9404,-0.9338,-0.9237,-0.9158,-0.9071,-0.894,-0.883,-0.8752,-0.8637,-0.8572,-0.8562,-0.8543,-0.8545,-0.8531,-0.8663,-0.8695,-0.8553,-0.8553,-0.8553,-0.8553,-0.8553,-0.8553,-0.9698,-0.9583,-0.9557,-0.9409,-0.9359,-0.9251,-0.9202,-0.9134,-0.9071,-0.893,-0.8842,-0.8795,-0.8713,-0.8594,-0.849,-0.8469,-0.8425,-0.8406,-0.8383,-0.8508,-0.8522,-0.8536,-0.8565,-0.8398,-0.8398,-0.8259,-0.8258,-0.8257]}]]